Regional Weather Roundup
Issued by NWS

Home | Current Version | Previous Version | Graphics & Text | Print | Product List | Glossary On
Versions: 1 2 3 4 5 6 7 8 9 10 11 12 13 14 15 16 17 18 19 20 21 22 23 24 25 26 27
000
ASUS45 KTFX 020310
RWRMT
MONTANA REGIONAL WEATHER ROUNDUP
NATIONAL WEATHER SERVICE GREAT FALLS MT
900 PM MDT SUN MAY 01 2016

NOTE: "FAIR" INDICATES FEW OR NO CLOUDS BELOW 12000 FEET WITH NO
SIGNIFICANT WEATHER AND/OR OBSTRUCTIONS TO VISIBILITY.

MTZ001>007-043-020400-
WEST OF THE DIVIDE

CITY           SKY/WX    TMP DP  RH WIND       PRES   REMARKS
KALISPELL      CLEAR     59  38  45 CALM      30.09S
MISSOULA       CLEAR     61  38  42 N12       30.10S
BUTTE          CLEAR     51  25  36 SW6       30.19R
MULLAN PASS    CLEAR     49  29  46 SE6       30.18S
ANACONDA         N/A     52  30  43 NW5       30.17R
DEER LODGE       N/A     54  30  40 NW6       30.18R
EUREKA           N/A     61  39  44 NE5       30.10S
HAMILTON         N/A     59  36  41 CALM      30.10R
LIBBY            N/A     61  39  44 CALM      30.09R
PLAINS           N/A     59  43  55 CALM      30.11R
THOMPSON FALLS   N/A     62  39  42 E5        30.12R
$$

MTZ008-052>055-020400-
SOUTHWEST MONTANA

CITY           SKY/WX    TMP DP  RH WIND       PRES   REMARKS
BOZEMAN        CLEAR     48  30  49 SE10      30.17R
DILLON         CLEAR     50  28  42 NE13      30.14R
ENNIS          CLEAR     50  30  46 N8G15     30.21R
TWIN BRIDGES     N/A     52  23  32 N7        30.12R
$$

MTZ009-010-012-014-046-048-049-054-020400-
EAST SLOPES AND CENTRAL MONTANA

CITY           SKY/WX    TMP DP  RH WIND       PRES   REMARKS
CUT BANK       CLEAR     54  33  45 SE5       30.18S
GREAT FALLS    CLEAR     50  34  54 NE7       30.18S
MALMSTROM AFB  CLEAR     53  35  48 NE5       30.18S
HELENA         CLEAR     54  35  48 NW6       30.15R
CHOTEAU          N/A     54  32  43 SE6       30.19F
CONRAD           N/A     54  39  56 E1        30.20S
$$

MTZ011-013-016-021-045-047-050-051-020400-
NORTH CENTRAL MONTANA

CITY           SKY/WX    TMP DP  RH WIND       PRES   REMARKS
HAVRE          PTCLDY    59  31  34 CALM      30.16F
LEWISTOWN      CLEAR     50  33  52 E6        30.20S
N BAR RANCH      N/A     46  30  53 CALM      30.24S
CHINOOK          N/A     57  41  54 CALM      30.17S
$$

MTZ017>020-022>027-061-062-020400-
NORTHEAST MONTANA

CITY           SKY/WX    TMP DP  RH WIND       PRES   REMARKS
GLASGOW        MOCLDY    58  33  39 W5        30.17S
JORDAN           N/A     50  38  63 CALM      30.19S
SIDNEY         CLOUDY    54  30  40 W9        30.15S
WOLF POINT     CLOUDY    56  35  45 W6        30.15S
PLENTYWOOD       N/A     59  30  33 NW3       30.11S
POPLAR           N/A     57  34  41 SW5       30.15S
SCOBEY           N/A     56  31  38 W8        30.12R
$$

MTZ028>42-056>058-020400-
SOUTHCENTRAL AND SOUTHEAST MONTANA

CITY           SKY/WX    TMP DP  RH WIND       PRES   REMARKS
BAKER          CLEAR     48  33  56 W9        30.20S
BILLINGS       PTCLDY    54  31  41 NE3       30.21S
LIVINGSTON     CLEAR     48  29  47 E9        30.19S
MILES CITY     CLEAR     52  35  52 SW7       30.19F
EKALAKA          N/A     49  30  48 CALM      30.18S
FORSYTH          N/A     52  36  54 CALM      30.20S
LAUREL           N/A     48  26  42 MISG      30.19R
ROUNDUP          N/A     53  33  46 CALM      30.11S
$$

REGIONAL REPORTS...DAKOTAS

CITY           SKY/WX    TMP DP  RH WIND       PRES   REMARKS
WILLISTON      PTCLDY    55  31  39 SW6       30.12F
MINOT          CLEAR     57  26  30 SE5       30.11F
DICKINSON      CLEAR     49  29  46 NW5       30.16R
BEACH            N/A     46  28  49 CALM      30.21S
CROSBY         MOCLDY    52  30  43 W10       30.11S
WATFORD CITY     N/A     50  30  46 SW6       30.14F
BISMARCK       CLEAR     49  32  52 CALM      30.16S
GRAND FORKS    PTCLDY    54  30  40 E7        30.12S
FARGO          CLEAR     54  27  35 CALM      30.13R
BUFFALO SD       N/A     51  30  44 NW13      30.14S
RAPID CITY     CLEAR     39  30  70 NE6       30.22R
$$

REGIONAL REPORTS...WYOMING/IDAHO/WASHINGTON

CITY           SKY/WX    TMP DP  RH WIND       PRES   REMARKS
GILLETTE       CLEAR     36  31  82 SW3       30.24R
SHERIDAN       CLEAR     49  32  52 SE3       30.22R
BUFFALO WY       N/A    N/A N/A N/A MISG      30.25R
CODY           CLEAR     46  25  42 SE6       30.22R
YELLOWSTONE LA   N/A     31  21  66 CALM      30.26R
IDAHO FALLS    CLEAR     53  23  31 N7        30.09R
SALMON         CLEAR     55  30  38 E3        30.07R
BOISE          CLEAR     65  41  41 NW5       30.03R
SPOKANE        PTCLDY    67  37  33 N6        30.05S
$$

REGIONAL REPORTS...ALBERTA

CITY           SKY/WX    TMP DP  RH WIND       PRES   REMARKS
EDMONTON       CLEAR     70  37  30 W10       30.05R
CALGARY        PTCLDY    61  28  29 SE8       30.15R
LETHBRIDGE     MOCLDY    54  36  50 S14       30.13S
MEDICINE HAT   CLOUDY    57  39  51 SW3       30.13R
WATERTON GATE    N/A     48  36  61 NE1         N/A
MILK RIVER       N/A     50  37  62 SE2         N/A
$$

REGIONAL REPORTS...SASKATCHEWAN

CITY           SKY/WX    TMP DP  RH WIND       PRES   REMARKS
SWIFT CURRENT  MOCLDY    55  36  47 W9        30.11S
REGINA         MOCLDY    57  34  41 W7        30.07F
SASKATOON      MOCLDY    57  32  38 SW2       30.04S
CYPRESS HILLS    N/A     50  30  46 W2          N/A
ROCKGLEN         N/A     50  32  50 W9          N/A
ASSINIBOIA       N/A     61  34  36 SW6         N/A
$$




USA.gov is the U.S. government's official web portal to all federal, state and local government web resources and services.